Simultaneous Nadir Overpasses (SNOs) Predictions

Prediction of SNOs near equator between AQUA and NPP Satellite Orbit:

Table of predicted SNOs near equator for the next 14.0 days since TLE Epoch: 7/12/2015
Index Date (AQUA) Time (AQUA) AQUA Lat,Lon Date (NPP) Time (NPP) NPP Lat,Lon Distance(km) Time Diff (sec)
1 07/14/2015 05:31:41 29.99, 116.30 07/14/2015 05:21:41 30.46, 116.74 67.77 600
2 07/14/2015 06:21:03 -29.96, -76.04 07/14/2015 06:12:15 -30.04, -75.81 23.23 528
3 07/14/2015 07:08:57 24.15, 93.04 07/14/2015 07:01:23 24.15, 93.04 0.19 454
4 07/14/2015 07:50:09 5.43, -92.79 07/14/2015 07:43:40 5.43, -92.79 0.66 389
5 07/14/2015 08:38:07 -11.06, 76.04 07/14/2015 08:32:53 -11.10, 75.79 27.54 314
6 07/14/2015 09:26:14 15.58,-115.30 07/14/2015 09:22:15 15.70,-115.81 55.78 239
7 07/14/2015 10:14:29 -20.16, 53.36 07/14/2015 10:11:46 -20.30, 52.59 82.07 163
8 07/16/2015 21:48:08 30.00,-127.82 07/16/2015 21:38:28 30.10,-127.39 43.07 580
9 07/16/2015 22:37:30 -29.97, 39.85 07/16/2015 22:29:08 -30.03, 39.96 12.73 502
10 07/16/2015 23:22:49 14.81,-148.91 07/16/2015 23:15:37 14.81,-148.92 0.42 432
11 07/17/2015 00:05:53 8.02, 23.65 07/16/2015 23:59:49 8.03, 23.57 8.67 364
12 07/17/2015 00:54:09 -12.56,-167.75 07/17/2015 00:49:20 -12.63,-168.09 37.65 289
13 07/17/2015 01:42:15 17.14, 0.93 07/17/2015 01:38:42 17.24, 0.32 65.39 213
14 07/17/2015 02:30:31 -21.66, 169.59 07/17/2015 02:28:13 -21.83, 168.73 90.84 138
15 07/19/2015 14:04:33 29.97, -11.92 07/19/2015 13:55:19 30.04, -11.60 32.26 554
16 07/19/2015 14:53:55 -29.94, 155.74 07/19/2015 14:45:59 -29.96, 155.75 2.41 476
17 07/19/2015 15:36:29 4.81, -30.86 07/19/2015 15:29:39 4.82, -30.87 0.90 410
18 07/19/2015 16:21:53 9.56, 139.86 07/19/2015 16:16:14 9.62, 139.70 19.39 339
19 07/19/2015 17:10:08 -14.15, -51.51 07/19/2015 17:05:45 -14.22, -51.95 47.75 263
20 07/19/2015 17:58:15 18.67, 117.17 07/19/2015 17:55:07 18.83, 116.48 74.75 188
21 07/19/2015 18:46:30 -23.25, -74.14 07/19/2015 18:44:38 -23.41, -75.10 99.40 112
22 07/22/2015 05:31:29 -29.99, -63.66 07/22/2015 05:21:29 -30.36, -63.21 59.46 600
23 07/22/2015 06:20:59 29.97, 103.97 07/22/2015 06:12:11 29.99, 104.19 21.53 528
24 07/22/2015 07:08:15 -22.36, -86.49 07/22/2015 07:00:42 -22.36, -86.49 0.13 453
25 07/22/2015 07:49:59 -5.83, 87.29 07/22/2015 07:43:31 -5.83, 87.28 1.06 388
26 07/22/2015 08:37:54 11.07,-103.92 07/22/2015 08:32:41 11.15,-104.18 29.77 313
27 07/22/2015 09:26:09 -15.67, 64.72 07/22/2015 09:22:11 -15.80, 64.19 57.70 238
28 07/22/2015 10:14:16 20.19,-126.60 07/22/2015 10:11:34 20.36,-127.38 84.07 162
29 07/24/2015 21:47:54 -29.94, 52.24 07/24/2015 21:38:16 -30.01, 52.65 40.82 578
30 07/24/2015 22:37:25 29.98,-140.15 07/24/2015 22:29:04 29.99,-140.04 10.35 501
31 07/24/2015 23:21:38 -11.35, 31.89 07/24/2015 23:14:27 -11.35, 31.90 1.20 431
32 07/25/2015 00:05:46 -8.17,-156.32 07/24/2015 23:59:44 -8.17,-156.42 11.07 362
33 07/25/2015 00:53:53 12.69, 12.32 07/25/2015 00:49:06 12.79, 11.97 40.17 287
34 07/25/2015 01:42:08 -17.28,-179.03 07/25/2015 01:38:37 -17.38,-179.66 67.55 211
35 07/25/2015 02:30:15 21.80, -10.33 07/25/2015 02:27:59 22.00, -11.21 93.03 136




NCC Satellite Simultaneous Nadir Overpasses (SNOs) Prediction Service
